Location: *
(45.7833°N, 22.7167°E)
Time: 17:01:48
(UTC+00:00)

Daily predictions for brighter satellites

Satellite Brightness Start Highest point End
(mag) Time Altitude Azimuth Time Altitude Azimuth Time Altitude Azimuth
CZ-4C R/B 3.4 17:12:15 10° NNW 17:18:58 47° NE 17:26:59 10° ESE
Cosmos 1733 Rocket 3.3 17:19:38 10° SSE 17:23:46 48° E 17:27:57 10° NNE
Cosmos 1674 Rocket 4.3 17:21:13 10° N 17:25:07 32° ENE 17:28:58 10° SE
Lacrosse 5 rocket 3.2 17:22:08 10° W 17:25:56 29° NNW 17:29:34 10° NE
Cosmos 2219 3.3 17:21:33 10° S 17:27:01 57° ESE 17:32:32 10° NNE
PSLV R/B 4.1 17:26:30 10° S 17:30:25 72° WSW 17:34:19 10° NNW
Cosmos 1378 Rocket 4.1 17:26:20 10° N 17:30:31 39° ENE 17:34:40 10° SE
Cosmos 1726 3.1 17:27:29 10° SSW 17:30:54 50° WNW 17:34:22 10° N
Cosmos 2233 Rocket 4.0 17:25:22 10° N 17:31:35 79° E 17:37:49 10° SSE
ATLAS 2AS CENTAUR R/B 4.0 17:28:10 10° SSE 17:33:16 20° ESE 17:38:18 10° ENE
Feng Yun 1-1 Rocket 4.4 17:29:30 10° SSE 17:35:04 65° ENE 17:40:48 10° N
Cosmos 1470 3.6 17:32:02 10° SSE 17:35:24 29° E 17:38:48 10° NNE
CSL-04 Rocket 4.2 17:32:27 10° SE 17:37:37 42° ENE 17:42:45 10° N
RESURS DK-1 3.8 17:37:07 10° SE 17:39:41 16° ESE 17:42:18 10° ENE
CZ-4 R/B 1.3 17:35:51 10° SSE 17:39:43 90° WSW 17:43:42 10° NNW
NOSS 2-1 (C) 3.1 17:37:09 10° SSW 17:40:25 44° SE 17:43:25 10° NE
SL-16 R/B 2.3 17:37:03 10° NNW 17:42:44 66° ENE 17:48:22 10° SE
YAOGAN 1 3.6 17:38:50 10° S 17:43:00 49° W 17:47:14 10° NNW
SJ-6B 2.8 17:39:47 10° SSE 17:43:31 54° ENE 17:47:12 10° N
SJ 16-02 2.4 17:40:16 10° N 17:44:07 29° ENE 17:47:33 12° ESE
NOSS 2-1 (D) 3.0 17:41:45 10° SSW 17:45:10 51° SE 17:48:17 10° NE
USA 267 3.3 17:44:14 10° ESE 17:50:44 74° NNE 17:57:17 10° NW
ISS -3.3 17:47:34 10° WNW 17:50:51 55° SW 17:53:42 13° SE
NOSS 3-4 (A) 3.5 17:45:48 10° SW 17:51:23 75° NW 17:57:32 10° NE
NOSS 3-4 (C) 3.5 17:45:54 10° SW 17:51:30 76° NW 17:57:38 10° NE
GPS 2-04 Rocket1 4.4 17:50:20 10° SSW 17:52:29 15° S 17:54:17 11° SE
Cosmos 968 Rocket 4.0 17:47:37 10° NNW 17:52:42 62° WSW 17:57:42 10° S
Resurs 1-3 3.8 17:48:28 10° SSE 17:52:43 53° ENE 17:56:59 10° N
ATLAS 3B R/B 4.2 17:47:11 10° NNW 17:53:22 27° NNE 17:59:41 10° E
Cosmos 2263 Rocket 2.6 17:49:52 10° S 17:54:55 37° ESE 17:59:59 10° NE
Meteor 1-15 Rocket 4.4 17:49:19 10° S 17:55:01 58° E 18:00:49 10° NNE
Cosmos 1486 Rocket 4.4 17:50:45 10° N 17:55:52 46° ENE 18:00:24 13° SE
USA 186 1.6 17:56:33 10° SSE 17:59:38 72° ENE 18:02:49 10° N
Cosmos 1908 Rocket 4.0 17:57:20 10° SSE 18:01:31 42° E 18:05:43 10° NNE
Resurs 01 Rocket 2.5 17:59:05 15° ESE 18:02:00 31° ENE 18:05:54 10° N
Cosmos 1758 4.5 18:02:05 18° ESE 18:03:37 22° E 18:06:41 10° NE
GEOS 3 Rocket 3.8 18:03:27 10° NE 18:08:44 53° ESE 18:13:58 10° SSW
Cosmos 2237 Rocket 4.3 18:05:35 10° NW 18:10:10 26° WSW 18:14:44 10° SSW
Intercosmos 25 Rocket 4.0 18:04:31 10° NNW 18:10:24 75° W 18:14:10 10° S
Cosmos 220 Rocket 3.9 18:13:41 10° NNW 18:17:53 67° ENE 18:20:40 21° SSE
Cosmos 2346 Rocket 4.4 18:12:46 10° S 18:18:55 74° E 18:25:10 10° NNE
Cosmos 1072 Rocket 4.5 18:13:01 10° N 18:19:22 69° E 18:25:37 10° SSE
BREEZE M DEB (TANK) 2.8 18:17:45 10° WNW 18:19:54 37° N 18:20:52 25° ENE
Cosmos 1975 Rocket 4.0 18:16:56 10° NNE 18:20:52 29° ENE 18:22:08 25° ESE
IRS-1C Rocket 4.1 18:16:27 14° SSE 18:20:56 61° ENE 18:26:09 10° N
SL-4 R/B 3.3 18:16:57 10° W 18:21:26 44° N 18:25:28 12° ENE
CSL-04 Debris 4.3 18:16:06 10° SSE 18:21:32 79° WSW 18:27:02 10° NNW
Okean O Rocket 2.9 18:17:43 10° S 18:21:51 40° W 18:26:00 10° NNW
Atlas Centaur 2 3.7 18:22:14 10° SSW 18:23:38 11° S 18:24:11 11° SSE
BREEZE-M DEB (TANK) 3.7 18:23:07 10° SSW 18:26:22 51° SE 18:35:25 10° ENE
Okean-O 2.6 18:25:31 13° SSE 18:29:24 88° ENE 18:33:51 10° NNW
Ariane Rocket 4.0 18:30:53 24° E 18:32:14 28° ENE 18:36:29 10° N
FALCON 9 R/B 4.2 18:06:55 10° W 18:34:55 49° SSW 18:40:38 23° SE
Landsat 5 3.3 18:31:55 10° NNE 18:35:53 62° ESE 18:39:57 10° S
Cosmos 1782 Rocket 3.7 18:33:30 21° SSE 18:36:12 51° E 18:40:28 10° NNE
SPOT 1/Viking Rocket 3.5 18:32:45 17° SSE 18:36:50 81° ENE 18:42:05 10° NNW
NOSS 2-1 (E) 3.9 18:35:33 10° WSW 18:38:40 43° NW 18:41:42 10° NNE
Cosmos 2227 4.5 18:33:41 10° S 18:39:06 44° ESE 18:44:33 10° NE
Cosmos 1943 3.3 18:35:10 10° NNW 18:40:43 56° ENE 18:43:07 32° ESE
Meteor 2-5 Rocket 4.1 18:35:58 10° NNW 18:41:52 72° W 18:47:46 10° S
Cosmos 1464 Rocket 4.0 18:37:44 10° N 18:44:11 86° W 18:50:29 10° S
Cosmos 1354 Rocket 4.1 18:39:58 10° NNW 18:45:12 59° ENE 18:47:12 36° SE
Iridium 82 4.4 18:44:46 57° SE 18:45:13 66° E 18:48:46 10° N
Cosmos 1603 4.0 18:41:42 10° NNW 18:47:17 50° ENE 18:49:15 35° ESE
IRS-P2 Rocket 4.5 18:45:35 28° SSE 18:48:27 77° ENE 18:53:44 10° NNW
SPOT 5 3.6 18:56:12 34° ENE 18:56:34 34° ENE 19:01:05 10° N
BlueWalker 3 3.6 18:53:14 10° WNW 18:56:46 32° NNW 18:58:58 18° NE
USA 215 4.0 18:52:15 10° NE 18:58:32 51° NNW 19:04:48 10° W
Geosat 4.1 18:59:50 46° ESE 19:01:06 60° ENE 19:06:03 10° NNW
MetOp-B 4.2 19:01:29 44° SE 19:02:58 62° ENE 19:08:16 10° N
CARTOSAT-1 3.4 19:02:58 58° SSE 19:03:47 83° ENE 19:08:07 10° NNW
Lacrosse 5 rocket 3.8 19:03:05 10° NW 19:05:50 17° N 19:08:18 11° NE
Cosmos 1025 Rocket 2.9 19:02:26 10° N 19:06:45 82° W 19:07:38 55° S
CZ-4C R/B 3.5 19:00:38 10° NW 19:07:51 57° WSW 19:13:27 22° S
Cosmos 1908 3.9 19:08:49 21° SSW 19:11:05 50° WNW 19:14:46 10° N
Cosmos 1340 Rocket 3.2 19:08:23 10° NNW 19:12:11 57° W 19:12:48 49° SW
Terra 2.8 19:17:44 32° NE 19:17:44 32° NE 19:21:18 10° N
MOS 1 4.4 19:14:21 32° S 19:17:07 72° WSW 19:22:51 10° NNW
RESURS DK-1 3.2 19:13:12 10° SW 19:17:11 50° WNW 19:21:14 10° NNE
IRS-1A Rocket 4.4 19:19:49 39° S 19:22:06 79° WSW 19:27:56 10° NNW
SJ 16-02 3.0 19:18:42 10° NW 19:22:33 30° W 19:24:28 21° SW
ATLAS 2AS CENTAUR R/B 2.8 19:15:38 10° SSW 19:23:18 83° SE 19:30:43 10° NE
Cosmos 489 Rocket 4.4 19:17:06 10° NNW 19:23:26 89° ENE 19:25:10 51° SSE
Cosmos 1634 Rocket 3.9 19:17:43 10° N 19:24:03 69° E 19:25:23 54° SE
SL-16 R/B 4.4 19:22:15 10° NW 19:26:16 20° W 19:30:16 10° SW
Timation 2 Rocket 3.9 19:23:30 10° SSW 19:29:39 88° WNW 19:36:08 10° NNE
H-2A R/B 2.7 19:33:56 71° N 19:33:56 71° N 19:37:55 10° NNW
USA 267 4.2 19:31:34 28° S 19:34:04 38° SW 19:40:05 10° WNW
Cosmos 2344 4.3 19:26:54 10° NW 19:35:17 59° NE 19:39:31 38° ESE
Aureole 1 Rocket 4.0 19:34:11 10° NNW 19:36:42 36° NW 19:36:42 36° NW
Resurs 01 Rocket 3.4 19:36:36 21° SW 19:38:28 28° W 19:42:17 10° NW
Cosmos 2263 Rocket 3.6 19:33:41 10° WSW 19:38:49 37° NW 19:43:59 10° NNE
ERS-1 Rocket 3.1 19:39:41 60° NE 19:39:41 60° NE 19:44:07 10° N
Meteor 2-10 Rocket 3.4 19:40:52 78° NNE 19:40:52 78° NNE 19:45:33 10° N
Cosmos 1844 Rocket 3.8 19:46:30 31° NE 19:46:30 31° NE 19:49:23 10° NNE
ATLAS 3B R/B 3.0 19:37:54 10° NW 19:45:30 69° NE 19:47:05 56° ESE
Meteor 1-21 Rocket 4.2 19:39:51 10° NNW 19:45:49 87° W 19:46:23 75° S
Meteor 2-14 Rocket 4.3 19:46:45 76° SE 19:47:01 78° E 19:53:12 10° NNE
SPOT 3 Rocket 3.6 19:53:08 78° WNW 19:53:08 78° WNW 19:58:07 10° NNW
ADEOS Rocket 3.2 19:53:49 68° SE 19:54:45 81° ENE 20:02:10 10° NNW
Cosmos 2142 Rocket 4.4 19:53:18 10° N 19:59:17 77° ENE 19:59:17 77° ENE
SL-4 R/B 3.5 19:57:00 10° WNW 20:00:42 39° NNW 20:00:42 39° NNW
Meteor 2-21 4.4 20:05:24 84° WSW 20:05:30 85° W 20:11:46 10° N
Cosmos 1953 4.3 20:07:37 27° NNW 20:07:37 27° NNW 20:09:44 10° N
Ariane Rocket 3.9 20:11:03 41° W 20:11:03 41° W 20:15:48 10° NNW
Cosmos 2279 Rocket 4.1 20:14:12 10° NNW 20:20:14 71° W 20:20:14 71° W
Spot 2 Rocket 4.3 20:22:06 47° WNW 20:22:06 47° WNW 20:26:09 10° NNW
Lacrosse 5 rocket 4.2 20:42:34 10° NW 20:43:37 15° NNW 20:43:37 15° NNW
Cosmos 1833 Rocket 4.0 20:41:02 10° NNW 20:44:41 33° NNE 20:44:41 33° NNE
NOSS 3-1 (C) 4.0 20:39:19 10° NW 20:46:34 82° W 20:46:34 82° W
Cosmos 2082 Rocket 4.1 20:49:24 10° N 20:52:39 20° NNE 20:52:39 20° NNE
Terra 3.9 20:56:28 23° WNW 20:56:28 23° WNW 20:58:52 10° NNW
ATLAS 2AS CENTAUR R/B 4.3 21:08:20 10° W 21:15:03 33° NNW 21:21:31 10° NNE
Cosmos 1844 Rocket 4.5 21:28:03 26° NW 21:28:11 26° NW 21:32:50 10° N
USA 229 DEB 4.3 21:23:14 10° NW 21:29:16 60° N 21:29:16 60° N
USA 229 4.3 21:23:19 10° NW 21:29:22 60° N 21:29:22 60° N
ATLAS 3B R/B 4.2 21:29:14 10° NW 21:34:21 30° W 21:34:21 30° W
USA 215 4.3 22:22:12 39° NNE 22:22:47 40° NNE 22:28:47 10° NW
Cosmos 1943 Rocket 4.4 22:31:50 19° NE 22:31:50 19° NE 22:33:20 10° NE
Cosmos 2082 Rocket 4.3 22:32:44 10° NNW 22:34:29 21° NNW 22:34:29 21° NNW
Cosmos 2278 Rocket 4.1 22:52:24 26° N 22:52:24 26° N 22:55:02 10° NNE
Lacrosse 5 4.0 23:51:04 24° NNE 23:51:04 24° NNE 23:53:14 10° NE
